User: anonymous   Login
Location: Montr�al
(45.5000°N, 73.5830°W)
Time: 08:46:12
(UTC-05:00)
Language:

Cosmos 2369 - Orbit

View from above orbital plane
View from above orbital plane
View from above satellite
View from above satellite

Ground track
Ground track

The orbit data is extracted from the following two-line orbital elements,

1 26069U 00006A   14328.02321650  .00000002  00000-0  26286-4 0  4047
2 26069 070.9965 160.0903 0011849 221.4613 302.7575 14.13270688763850
Epoch (UTC): 24 November 2014 00:33:25
Eccentricity: 0.0011849
inclination: 70.9965°
perigee height: 839 km
apogee height: 857 km
right ascension of ascending node: 160.0903°
argument of perigee: 221.4613°
revolutions per day: 14.13270688
mean anomaly at epoch: 302.7575°
orbit number at epoch: 76385

The dashed part of the orbit path shows where the satellite is in the earth's shadow,  

DLR